Hourly Data Report for October 11, 2013

All times are specified in Local Standard Time (LST). Add 1 hour to adjust for Daylight Saving Time where and when it is observed.

QIKIQTARJUAQ A
NUNAVUT

67°32'48.000" N
64°01'54.000" W
5.50 m
2400577
YVM

Download Data

Hourly Data (October 2013)
Hourly Data Report for October 11, 2013
Temp Definition
°C
Dew Point Temp Definition
°C
Rel Hum Definition
%
Wind Dir Definition
10's deg

Wind Spd Definition
km/h
Visibility Definition
km
Stn Press Definition
kPa
Hmdx Definition


Wind Chill Definition


Weather Definition


TIME
00:00 Legend Double Dagger -7.2 -11.4 72 20 17 16.1 101.86   -14 LegendNANA
01:00 Legend Double Dagger -8.1 -11.8 75 14 8 16.1 101.92   -12 LegendNANA
02:00 Legend Double Dagger -7.8 -11.9 73 19 15 16.1 101.95   -14 LegendNANA
03:00 Legend Double Dagger -9.2 -12.8 76 20 15 16.1 102.00   -16 LegendNANA
04:00 Legend Double Dagger -8.5 -13.0 70 22 11 16.1 102.05   -14 LegendNANA
05:00 Legend Double Dagger -9.0 -12.9 74 19 17 16.1 102.07   -16 LegendNANA
06:00 Legend Double Dagger -8.0 -12.5 70 20 13 16.1 102.09   -14 LegendNANA
07:00 Legend Double Dagger -8.5 -13.1 70 17 9 16.1 102.12   -13 LegendNANA
08:00 Legend Double Dagger -8.7 -13.2 70 15 11 16.1 102.13   -14 LegendNANA
09:00 Legend Double Dagger -7.8 -12.6 69 14 8 16.1 102.14   -12 LegendNANA
10:00 Legend Double Dagger -6.2 -11.4 67 LegendMM 4 16.1 102.15   -8 LegendNANA
11:00 Legend Double Dagger -6.9 -12.0 67 20 11 16.1 102.14   -12 LegendNANA
12:00 Legend Double Dagger -7.3 -12.4 67 20 13 16.1 102.15   -13 LegendNANA
13:00 Legend Double Dagger -6.8 -12.4 65 LegendMM 4 16.1 102.15   -9 LegendNANA
14:00 Legend Double Dagger -7.1 -12.1 68 20 11 16.1 102.15   -12 LegendNANA
15:00 Legend Double Dagger -6.3 -11.4 67 21 8 16.1 102.17   -10 LegendNANA
16:00 Legend Double Dagger -6.9 -12.5 64 19 18 16.1 102.19   -14 LegendNANA
17:00 Legend Double Dagger -6.7 -11.9 67 19 17 16.1 102.20   -13 LegendNANA
18:00 Legend Double Dagger -8.6 -13.5 68 20 15 16.1 102.20   -15 LegendNANA
19:00 Legend Double Dagger -6.6 -12.1 65 20 17 16.1 102.19   -13 LegendNANA
20:00 Legend Double Dagger -7.3 -12.2 68 19 17 16.1 102.18   -14 LegendNANA
21:00 Legend Double Dagger -7.5 -12.6 67 20 17 16.1 102.17   -14 LegendNANA
22:00 Legend Double Dagger -7.0 -12.1 67 20 18 16.1 102.14   -14 LegendNANA
23:00 Legend Double Dagger -8.0 -13.6 65 20 11 16.1 102.08   -13 LegendNANA

Notes on Data Quality.

Legend

  • E = Estimated
  • M = Missing
  • NA = Not Available
  • ‡ = Partner data that is not subject to review by the National Climate Archives
Date modified: